Location: Hickory_CSC
(35.7330°N, 81.3330°W)
Time: 21:38:53
(UTC-04:00)

Cosmos 1356 Rocket - Visible Passes

Search period start: 31 May 2016 00:00
Search period end: 10 June 2016 00:00
Orbit: 544 x 602 km, 81.2° (Epoch: 31 May)

Date Brightness Start Highest point End Pass type
(mag) Time Alt. Az. Time Alt. Az. Time Alt. Az.
31 May 3.6 05:34:46 10° SSW 05:38:44 49° W 05:42:40 10° N visible
01 Jun 6.1 04:03:01 10° ESE 04:04:55 13° E 04:06:50 10° ENE visible
01 Jun 4.1 05:37:50 10° SW 05:41:36 35° WNW 05:45:19 10° N visible
02 Jun 5.8 04:04:53 10° SE 04:07:39 18° E 04:10:24 10° NE visible
02 Jun 4.5 05:41:03 10° SW 05:44:28 26° WNW 05:47:53 10° NNW visible
03 Jun 5.4 04:07:18 11° SE 04:10:24 24° E 04:13:40 10° NE visible
04 Jun 4.8 04:10:32 16° SSE 04:13:09 33° E 04:16:47 10° NNE visible
05 Jun 4.2 04:13:45 23° SSE 04:15:56 46° E 04:19:48 10° NNE visible
06 Jun 3.6 04:16:55 31° S 04:18:44 66° E 04:22:43 10° NNE visible
07 Jun 3.2 04:20:04 38° S 04:21:32 87° W 04:25:33 10° N visible
08 Jun 3.4 04:23:10 40° SW 04:24:21 61° W 04:28:20 10° N visible
09 Jun 6.1 02:50:03 10° E 02:50:38 10° E 02:51:15 10° ENE visible
09 Jun 3.8 04:26:14 36° WSW 04:27:12 43° WNW 04:31:02 10° N visible
